Home > Time Zones > World Clock > Weather > India > Betul > Past weeks

Flag for India Weather past 2 weeks in Betul, Madhya Pradesh, India

Now
75 °F

Haze.


Feels Like: 77 °F
Forecast: 40 / 73 °F
Wind: 5 mph from Northeast

Location: Nagpur Sonegaon

Current Time: Dec 18, 2014 at 4:31:49 PM

Latest Report: Dec 18, 2014 at 3:10 PM


Visibility: 3 mi

Pressure: 30.04 "Hg

Humidity: 31%

Dew point: 43 °F

Location of BetulLocation

Historic Weather in Betul — Graph

°F

Betul temperature yesterday

Maximum temperature yesterday: 73 °F (at 2:10 PM)
Minimum temperature yesterday: 48 °F (at 6:10 AM)
Average temperature yesterday: 60 °F

Past Weeks' High & Low Weather Summary

 TemperatureHumidityPressure
High100 °F (Dec 3, 2:40 PM)94% (Dec 15, 1:10 AM)30.21 "Hg (Dec 15, 1:10 AM)
Low46 °F (Dec 18, 6:40 AM)31% (Dec 18, 3:10 PM)29.89 "Hg (Dec 3, 3:10 PM)
Average70 °F64%30.02 "Hg
* Reported Dec 3 2:40 PM — Dec 18 3:10 PM, Betul, Weather by CustomWeather, © 2014

Note: Actual official high and low records may vary slightly from our data, if they occured in-between our weather recording intervals... More about our weather records

Advertising

Betul weather history for previous 24 hours

 ConditionsComfort  
Time TempWeatherWind HumidityBarometerVisibility
3:10 PM
Dec 18
75 °FHaze.5 mph31%30.04 "Hg3 mi
2:10 PM73 °FHaze.5 mph65%30.07 "Hg3 mi
1:10 PM73 °FHaze.3 mph61%30.09 "Hg3 mi
12:10 PM72 °FHaze.3 mph61%30.12 "Hg2 mi
11:40 AM70 °FHaze.3 mph60%30.15 "Hg2 mi
9:10 AM61 °FHaze.3 mph55%30.18 "Hg1 mi
8:10 AM54 °FHaze.3 mph67%30.15 "Hg1 mi
6:40 AM46 °FHaze.3 mph76%30.12 "Hg2 mi
12:40 AM54 °FHaze.No wind58%30.09 "Hg2 mi
11:40 PM
Dec 17
55 °FHaze.3 mph55%30.12 "Hg2 mi
10:40 PM57 °FHaze.3 mph51%30.12 "Hg2 mi
10:10 PM57 °FHaze.3 mph51%30.12 "Hg2 mi
9:40 PM55 °FHaze.3 mph55%30.12 "Hg2 mi
9:10 PM59 °FHaze.3 mph51%30.09 "Hg2 mi
8:40 PM61 °FHaze.3 mph55%30.09 "Hg2 mi
8:10 PM59 °FHaze.3 mph55%30.09 "Hg2 mi
6:40 PM63 °FHaze.3 mph42%30.07 "Hg2 mi
5:40 PM66 °FHaze.3 mph56%30.04 "Hg2 mi
4:40 PM72 °FClear.7 mph61%30.04 "Hg4 mi
Weather by CustomWeather, © 2014

See weather overviewHow to use our weather pages